CW3699 Weather Reports


Display with metric or nautical units.
time (UTC)temp
F
wind
direction
speed
MPH
gust
MPH
rain 1hr
in
rain 24hr
in
rain mn
in
humidity
%
barometer
mb
20210801125904 63 12 0.0 0.0 0.00 0.57 0.00 88 1014.5
20210801125404 63 12 0.0 0.0 0.00 0.57 0.00 89 1014.5
20210801124905 63 12 0.0 1.0 0.00 0.57 0.00 90 1014.4
20210801124405 63 12 0.0 2.0 0.00 0.57 0.00 90 1014.3
20210801123904 63 338 0.0 1.0 0.00 0.57 0.00 90 1014.4
20210801123404 63 338 0.0 2.0 0.00 0.57 0.00 90 1014.4
20210801122904 63 338 1.0 2.0 0.00 0.57 0.00 90 1014.3
20210801122404 63 338 1.0 2.0 0.00 0.57 0.00 90 1014.1
20210801121904 63 338 0.0 2.0 0.00 0.57 0.00 91 1014.1
20210801121404 63 338 1.0 2.0 0.00 0.57 0.00 90 1014.1
20210801120904 63 338 0.0 0.0 0.00 0.57 0.00 90 1014.0
20210801120404 63 338 0.0 2.0 0.00 0.57 0.00 90 1013.9
20210801115904 63 338 0.0 2.0 0.00 0.57 0.00 90 1013.9
20210801115405 63 338 0.0 2.0 0.00 0.57 0.00 91 1013.8
20210801114907 63 338 1.0 2.0 0.00 0.57 0.00 90 1013.7
20210801114404 62 338 0.0 0.0 0.00 0.57 0.00 90 1013.7
20210801113904 62 338 0.0 1.0 0.00 0.57 0.00 90 1013.7
20210801113406 62 338 0.0 1.0 0.00 0.57 0.00 90 1013.6
20210801112905 63 338 0.0 1.0 0.00 0.57 0.00 90 1013.5
20210801112404 63 338 1.0 2.0 0.00 0.57 0.00 91 1013.5
20210801111906 63 336 0.0 2.0 0.00 0.57 0.00 91 1013.4
20210801111404 63 336 0.0 1.0 0.00 0.57 0.00 91 1013.4
20210801110904 63 336 0.0 2.0 0.00 0.57 0.00 91 1013.3
20210801110404 63 336 1.0 2.0 0.00 0.57 0.00 92 1013.3
20210801105904 63 336 1.0 1.0 0.00 0.57 0.00 92 1013.3
20210801105405 63 336 0.0 1.0 0.00 0.57 0.00 92 1013.3
20210801104906 62 336 1.0 2.0 0.00 0.57 0.00 92 1013.2
20210801104404 62 336 0.0 0.0 0.00 0.57 0.00 92 1013.0
20210801103905 62 336 0.0 0.0 0.00 0.57 0.00 92 1013.0
20210801103406 62 336 0.0 2.0 0.00 0.57 0.00 92 1013.0
20210801102905 62 336 1.0 2.0 0.00 0.57 0.00 92 1013.0
20210801102404 62 321 0.0 1.0 0.00 0.57 0.00 93 1012.9
20210801101907 62 321 0.0 2.0 0.00 0.57 0.00 93 1012.8
20210801101404 62 321 0.0 1.0 0.00 0.57 0.00 93 1012.8
20210801100904 62 321 0.0 1.0 0.00 0.57 0.00 93 1012.8
20210801100407 62 321 0.0 2.0 0.00 0.57 0.00 93 1012.6
20210801095904 62 317 0.0 0.0 0.00 0.57 0.00 93 1012.6
20210801095404 62 317 0.0 0.0 0.00 0.57 0.00 93 1012.6
20210801094906 62 317 0.0 0.0 0.00 0.57 0.00 93 1012.6
20210801094404 62 317 0.0 0.0 0.00 0.57 0.00 93 1012.5
20210801093904 62 317 0.0 0.0 0.00 0.57 0.00 93 1012.5
20210801093407 62 317 0.0 1.0 0.00 0.57 0.00 93 1012.5
20210801092904 62 317 0.0 1.0 0.00 0.57 0.00 93 1012.5
20210801092404 62 317 0.0 1.0 0.00 0.57 0.00 93 1012.5
20210801091906 62 317 0.0 1.0 0.00 0.57 0.00 93 1012.5
20210801091404 62 317 0.0 2.0 0.00 0.57 0.00 93 1012.5
20210801090905 62 305 0.0 1.0 0.00 0.57 0.00 94 1012.4
20210801090404 62 236 0.0 1.0 0.00 0.57 0.00 94 1012.4
20210801085905 62 318 1.0 5.0 0.00 0.57 0.00 93 1012.3
20210801085404 62 327 0.0 3.0 0.00 0.57 0.00 94 1012.2
20210801084907 62 12 0.0 6.0 0.00 0.57 0.00 94 1012.3
20210801084404 62 0 0.0 1.0 0.00 0.57 0.00 93 1012.3
20210801083904 62 345 0.0 3.0 0.00 0.57 0.00 93 1012.3
20210801083406 62 0 1.0 6.0 0.00 0.57 0.00 94 1012.3
20210801082904 62 10 0.0 2.0 0.00 0.57 0.00 94 1012.2
20210801082404 62 15 1.0 6.0 0.00 0.57 0.00 94 1012.2
20210801081906 61 15 0.0 3.0 0.00 0.57 0.00 94 1012.1
20210801081404 61 334 1.0 5.0 0.00 0.57 0.00 94 1012.1
20210801080905 61 36 0.0 0.0 0.00 0.57 0.00 94 1012.1
20210801080406 61 340 1.0 3.0 0.00 0.57 0.00 94 1012.1
20210801075904 61 13 1.0 3.0 0.00 0.57 0.00 94 1012.1
20210801075404 61 4 0.0 5.0 0.00 0.57 0.00 94 1012.1
20210801074907 61 350 0.0 2.0 0.00 0.57 0.00 93 1012.0
20210801074404 61 274 0.0 1.0 0.00 0.57 0.00 93 1012.1
20210801073904 61 6 1.0 6.0 0.00 0.57 0.00 93 1012.0
20210801073406 61 17 0.0 3.0 0.00 0.57 0.00 93 1012.1
20210801072903 61 2 1.0 5.0 0.00 0.57 0.00 93 1012.1
20210801072404 61 300 0.0 1.0 0.00 0.57 0.00 92 1012.1
20210801071906 61 271 0.0 2.0 0.00 0.57 0.00 92 1012.0
20210801071404 61 22 0.0 2.0 0.00 0.57 0.00 92 1011.9
20210801070904 61 334 1.0 3.0 0.00 0.57 0.00 92 1011.9
20210801070406 62 346 0.0 2.0 0.00 0.57 0.00 91 1011.9
20210801065904 62 71 0.0 1.0 0.00 0.57 0.00 90 1011.9
20210801065404 62 71 0.0 1.0 0.00 0.57 0.00 90 1011.9
20210801064904 62 85 0.0 3.0 0.00 0.57 0.00 90 1011.9
20210801064404 62 30 0.0 1.0 0.00 0.57 0.00 91 1012.0
20210801063903 62 30 0.0 2.0 0.00 0.57 0.00 91 1011.9
20210801063406 62 315 0.0 1.0 0.00 0.57 0.00 91 1011.9
20210801062904 62 315 1.0 3.0 0.00 0.57 0.00 92 1012.0
20210801062404 62 305 1.0 3.0 0.00 0.57 0.00 92 1012.0
20210801061907 62 52 0.0 3.0 0.00 0.57 0.00 92 1012.0
20210801061404 62 219 0.0 2.0 0.00 0.57 0.00 92 1012.0
20210801060904 62 267 1.0 3.0 0.00 0.57 0.00 91 1012.1
20210801060407 63 304 1.0 6.0 0.00 0.57 0.00 92 1012.1
20210801055905 63 9 0.0 3.0 0.00 0.57 0.00 91 1012.2
20210801055403 63 348 0.0 2.0 0.00 0.57 0.00 92 1012.2
20210801054906 63 337 1.0 3.0 0.00 0.57 0.00 91 1012.2
20210801054404 63 355 1.0 3.0 0.00 0.57 0.00 92 1012.1
20210801053903 63 28 0.0 3.0 0.00 0.57 0.00 92 1012.2
20210801053406 63 307 0.0 5.0 0.00 0.57 0.00 92 1012.2
20210801052904 63 38 0.0 1.0 0.00 0.57 0.00 92 1012.3
20210801052404 63 352 0.0 7.0 0.00 0.57 0.00 92 1012.3
20210801051904 63 311 1.0 5.0 0.00 0.57 0.00 92 1012.3
20210801051404 63 355 1.0 5.0 0.00 0.57 0.00 91 1012.3
20210801050904 63 355 0.0 1.0 0.00 0.57 0.00 91 1012.3
20210801050404 63 336 0.0 1.0 0.00 0.57 0.00 91 1012.4
20210801045912 63 342 0.0 2.0 0.00 0.57 0.00 92 1012.3
20210801045412 63 40 0.0 3.0 0.00 0.57 0.00 91 1012.2
20210801044912 63 348 0.0 2.0 0.00 0.57 0.00 91 1012.3
20210801044412 63 344 0.0 3.0 0.00 0.57 0.00 91 1012.3
20210801043912 63 355 0.0 2.0 0.00 0.57 0.00 91 1012.2
20210801043412 63 10 1.0 3.0 0.00 0.57 0.00 91 1012.2
20210801042912 63 10 0.0 5.0 0.00 0.57 0.00 91 1012.2
20210801042412 63 4 0.0 3.0 0.00 0.57 0.00 92 1012.2
20210801041912 63 333 0.0 6.0 0.00 0.57 0.00 91 1012.3
20210801041411 63 332 1.0 5.0 0.00 0.57 0.00 91 1012.3
20210801040912 63 354 1.0 5.0 0.00 0.57 0.00 91 1012.3
20210801040412 64 14 0.0 1.0 0.00 0.57 0.00 91 1012.4
20210801035912 64 15 0.0 2.0 0.00 0.57 0.57 91 1012.3
20210801035412 64 9 0.0 0.0 0.00 0.57 0.57 91 1012.4
20210801034912 64 9 1.0 3.0 0.00 0.57 0.57 90 1012.4
20210801034412 64 9 1.0 5.0 0.00 0.57 0.57 89 1012.5
20210801033912 64 61 0.0 0.0 0.00 0.57 0.57 89 1012.5
20210801033412 64 61 0.0 1.0 0.00 0.57 0.57 89 1012.6
20210801032912 65 61 0.0 2.0 0.00 0.57 0.57 88 1012.5
20210801032412 65 316 0.0 1.0 0.00 0.57 0.57 89 1012.6
20210801031912 65 318 0.0 1.0 0.00 0.57 0.57 89 1012.6
20210801031412 65 32 1.0 6.0 0.00 0.57 0.57 89 1012.8
20210801030912 65 355 0.0 3.0 0.00 0.57 0.57 89 1012.8
20210801030413 65 302 0.0 2.0 0.00 0.57 0.57 89 1012.8
20210801025912 65 285 0.0 1.0 0.00 0.57 0.57 89 1012.7
20210801025412 65 17 0.0 2.0 0.00 0.57 0.57 89 1012.6
20210801024912 65 317 1.0 2.0 0.00 0.57 0.57 89 1012.5
20210801024412 65 317 0.0 1.0 0.00 0.57 0.57 89 1012.3
20210801023912 65 317 0.0 1.0 0.00 0.57 0.57 90 1012.4
20210801023412 65 317 0.0 0.0 0.00 0.57 0.57 90 1012.3
20210801022912 65 317 0.0 0.0 0.00 0.57 0.57 90 1012.3
20210801022413 65 317 0.0 0.0 0.01 0.57 0.57 90 1012.3
20210801021912 65 317 0.0 0.0 0.01 0.57 0.57 91 1012.3
20210801021412 65 317 0.0 0.0 0.01 0.57 0.57 92 1012.3
20210801020911 65 317 0.0 0.0 0.01 0.57 0.57 93 1012.1
20210801020413 64 317 0.0 0.0 0.01 0.57 0.57 93 1012.2
20210801015912 64 317 0.0 0.0 0.01 0.57 0.57 93 1012.2
20210801015412 64 317 0.0 0.0 0.01 0.57 0.57 94 1012.2
20210801014914 64 317 0.0 0.0 0.01 0.57 0.57 94 1012.2
20210801014412 64 317 0.0 0.0 0.01 0.57 0.57 94 1012.3
20210801013912 64 317 0.0 0.0 0.01 0.57 0.57 94 1012.3
20210801013414 64 317 0.0 0.0 0.01 0.57 0.57 94 1012.3
20210801012912 64 317 0.0 0.0 0.01 0.57 0.57 94 1012.4
20210801012412 64 317 0.0 0.0 0.00 0.56 0.56 94 1012.3
20210801011914 65 317 0.0 0.0 0.00 0.56 0.56 94 1012.3
20210801011431 65 317 0.0 0.0 0.00 0.56 0.56 94 1012.3
20210801010912 65 317 0.0 0.0 0.00 0.56 0.56 94 1012.3
20210801010414 65 317 0.0 0.0 0.00 0.56 0.56 94 1012.1
20210801005912 65 317 0.0 0.0 0.00 0.56 0.56 94 1012.1
20210801005412 65 317 0.0 0.0 0.00 0.56 0.56 94 1012.2
20210801004914 65 317 0.0 0.0 0.00 0.56 0.56 94 1012.2
20210801004412 66 317 0.0 0.0 0.00 0.56 0.56 94 1012.1
20210801003911 66 317 0.0 0.0 0.00 0.56 0.56 94 1012.1
20210801003414 66 317 0.0 0.0 0.00 0.56 0.56 94 1012.2
20210801002912 66 317 0.0 0.0 0.01 0.56 0.56 94 1012.1
20210801002413 66 317 0.0 0.0 0.02 0.56 0.56 94 1012.0
20210801001914 66 318 0.0 0.0 0.04 0.56 0.56 94 1012.1
20210801001412 66 306 0.0 1.0 0.04 0.56 0.56 93 1012.1
20210801000912 66 305 0.0 0.0 0.04 0.56 0.56 93 1012.1
20210801000414 66 305 0.0 0.0 0.04 0.56 0.56 93 1012.1
20210731235912 66 305 0.0 0.0 0.04 0.56 0.56 93 1012.0
20210731235412 66 305 0.0 1.0 0.04 0.56 0.56 92 1012.0
20210731234913 67 52 1.0 5.0 0.04 0.56 0.56 91 1012.1
20210731234412 67 298 0.0 2.0 0.04 0.56 0.56 90 1012.1
20210731233913 68 251 0.0 3.0 0.04 0.56 0.56 89 1012.1
20210731233414 68 276 0.0 3.0 0.04 0.56 0.56 89 1012.2
20210731232912 69 265 0.0 1.0 0.03 0.55 0.55 88 1012.3
20210731232413 69 355 0.0 1.0 0.02 0.54 0.54 88 1012.3
20210731231914 69 336 0.0 2.0 0.00 0.52 0.52 86 1012.2
20210731231412 70 357 1.0 3.0 0.00 0.52 0.52 85 1012.2
20210731230911 70 23 0.0 1.0 0.00 0.52 0.52 84 1012.1
20210731230411 70 25 0.0 1.0 0.00 0.52 0.52 85 1012.2
20210731225912 70 29 0.0 2.0 0.00 0.52 0.52 84 1012.0
20210731225412 70 353 1.0 5.0 0.00 0.52 0.52 83 1012.0
20210731224913 70 9 0.0 0.0 0.00 0.52 0.52 83 1012.1
20210731224412 70 346 0.0 2.0 0.00 0.52 0.52 83 1012.1
20210731223912 70 13 0.0 1.0 0.00 0.52 0.52 84 1012.1
20210731223412 70 340 0.0 2.0 0.00 0.52 0.52 84 1012.0
20210731222912 71 13 0.0 1.0 0.00 0.52 0.52 84 1012.0
20210731222412 71 12 0.0 2.0 0.00 0.52 0.52 84 1012.1
20210731221914 71 355 0.0 1.0 0.00 0.52 0.52 84 1012.1
20210731221412 71 46 0.0 5.0 0.00 0.52 0.52 82 1012.1
20210731220912 71 35 0.0 2.0 0.00 0.52 0.52 81 1012.0
20210731220412 71 349 0.0 3.0 0.00 0.52 0.52 83 1012.0
20210731215912 71 12 0.0 5.0 0.00 0.52 0.52 83 1012.0
20210731215412 71 14 0.0 3.0 0.00 0.52 0.52 82 1012.1
20210731214911 71 12 1.0 3.0 0.00 0.52 0.52 81 1012.2
20210731214412 72 6 1.0 5.0 0.00 0.52 0.52 81 1012.2
20210731213911 72 5 1.0 3.0 0.00 0.52 0.52 81 1012.2
20210731213412 72 49 0.0 2.0 0.00 0.52 0.52 81 1012.2
20210731212912 72 31 0.0 3.0 0.00 0.52 0.52 80 1012.3
20210731212411 73 10 1.0 3.0 0.00 0.52 0.52 81 1012.2
20210731211914 73 78 0.0 1.0 0.00 0.52 0.52 81 1012.2
20210731211412 73 349 0.0 2.0 0.00 0.52 0.52 81 1012.2
20210731210912 73 317 0.0 2.0 0.00 0.52 0.52 81 1012.2
20210731210412 72 25 0.0 2.0 0.00 0.52 0.52 81 1012.2
20210731205911 72 39 0.0 1.0 0.00 0.52 0.52 83 1012.2
20210731205412 72 355 0.0 0.0 0.00 0.52 0.52 82 1012.2
20210731204914 72 356 1.0 5.0 0.00 0.52 0.52 82 1012.2
20210731204412 72 36 0.0 1.0 0.00 0.52 0.52 81 1012.3
20210731203911 73 23 0.0 1.0 0.00 0.52 0.52 82 1012.2
20210731203412 73 145 0.0 1.0 0.00 0.52 0.52 82 1012.2
20210731202911 73 11 0.0 2.0 0.00 0.52 0.52 81 1012.3
20210731202412 73 14 0.0 1.0 0.00 0.52 0.52 82 1012.3
20210731201914 72 13 0.0 1.0 0.00 0.52 0.52 83 1012.3
20210731201412 72 15 0.0 2.0 0.00 0.52 0.52 83 1012.3
20210731200932 72 309 1.0 5.0 0.00 0.52 0.52 82 1012.2
20210731200411 72 17 1.0 5.0 0.00 0.52 0.52 83 1012.2
20210731195912 71 127 0.0 1.0 0.00 0.52 0.52 85 1012.3
20210731195412 71 328 0.0 2.0 0.00 0.52 0.52 85 1012.3
20210731194913 71 180 0.0 2.0 0.00 0.52 0.52 85 1012.3
20210731194412 71 49 0.0 1.0 0.00 0.52 0.52 88 1012.3
20210731193912 71 325 1.0 6.0 0.00 0.52 0.52 87 1012.4
20210731193411 71 11 0.0 2.0 0.00 0.52 0.52 88 1012.4
20210731192912 71 280 0.0 1.0 0.00 0.52 0.52 89 1012.4
20210731192411 71 301 0.0 5.0 0.00 0.52 0.52 88 1012.4
20210731191912 71 63 0.0 2.0 0.00 0.52 0.52 88 1012.4
20210731191412 71 149 0.0 1.0 0.00 0.52 0.52 89 1012.4
20210731190912 70 290 0.0 7.0 0.00 0.52 0.52 89 1012.5
20210731190411 70 319 0.0 2.0 0.00 0.52 0.52 91 1012.4
20210731185911 70 21 1.0 3.0 0.52 0.52 0.52 91 1012.4
20210731185412 69 343 1.0 6.0 0.52 0.52 0.52 91 1012.4
20210731184911 69 59 0.0 1.0 0.52 0.52 0.52 93 1012.4
20210731184412 69 59 1.0 2.0 0.52 0.52 0.52 93 1012.3
20210731183912 68 5 0.0 3.0 0.52 0.52 0.52 93 1012.3
20210731183411 68 91 0.0 2.0 0.52 0.52 0.52 94 1012.2
20210731182912 68 12 0.0 3.0 0.52 0.52 0.52 95 1012.3
20210731182412 69 244 0.0 6.0 0.52 0.52 0.52 97 1012.3
20210731181913 68 55 0.0 3.0 0.52 0.52 0.52 98 1012.3
20210731181411 68 316 0.0 1.0 0.52 0.52 0.52 98 1012.3
20210731180912 68 303 1.0 7.0 0.52 0.52 0.52 98 1012.2
20210731180412 67 36 0.0 2.0 0.52 0.52 0.52 98 1012.3
20210731175911 67 279 0.0 1.0 0.00 0.00 0.00 98 1012.3
20210731175411 66 5 0.0 2.0 0.00 0.00 0.00 98 1012.3
20210731174911 66 338 0.0 1.0 0.00 0.00 0.00 98 1012.3
20210731174411 65 338 0.0 5.0 0.00 0.00 0.00 98 1012.2
20210731173912 64 123 0.0 2.0 0.00 0.00 0.00 97 1012.3
20210731173411 63 157 0.0 0.0 0.00 0.00 0.00 97 1012.5
20210731172911 63 169 0.0 0.0 0.00 0.00 0.00 97 1012.6
20210731172412 63 169 0.0 0.0 0.00 0.00 0.00 97 1012.6
20210731171913 62 169 0.0 1.0 0.00 0.00 0.00 97 1012.6
20210731171412 62 169 0.0 0.0 0.00 0.00 0.00 97 1012.6
20210731170912 62 169 0.0 0.0 0.00 0.00 0.00 97 1012.6
20210731170412 62 169 0.0 1.0 0.00 0.00 0.00 97 1012.7
20210731165911 61 169 0.0 1.0 0.00 0.00 0.00 97 1012.7
20210731165411 61 194 0.0 0.0 0.00 0.00 0.00 97 1012.6
20210731164911 61 174 0.0 0.0 0.00 0.00 0.00 97 1012.6
20210731164411 61 174 0.0 0.0 0.00 0.00 0.00 97 1012.6
20210731163912 60 174 0.0 0.0 0.00 0.00 0.00 97 1012.5
20210731163411 60 174 0.0 0.0 0.00 0.00 0.00 96 1012.6
20210731162912 60 174 0.0 0.0 0.00 0.00 0.00 96 1012.5
20210731162412 60 174 0.0 0.0 0.00 0.00 0.00 96 1012.5
20210731161912 60 174 0.0 0.0 0.00 0.00 0.00 96 1012.5
20210731161411 59 174 0.0 0.0 0.00 0.00 0.00 95 1012.5
20210731160912 59 174 0.0 0.0 0.00 0.00 0.00 95 1012.4
20210731160411 59 141 0.0 1.0 0.00 0.00 0.00 95 1012.4
20210731155912 59 161 1.0 2.0 0.00 0.00 0.00 95 1012.0
20210731155412 59 285 0.0 2.0 0.00 0.00 0.00 95 1012.0
20210731154911 59 182 0.0 1.0 0.00 0.00 0.00 95 1012.0
20210731154411 59 182 0.0 0.0 0.00 0.00 0.00 94 1012.1
20210731153911 59 182 0.0 1.0 0.00 0.00 0.00 94 1012.1
20210731153412 59 182 0.0 1.0 0.00 0.00 0.00 94 1012.1
20210731152911 59 182 0.0 1.0 0.00 0.00 0.00 93 1012.1
20210731152412 59 182 0.0 1.0 0.00 0.00 0.00 93 1012.1
20210731151911 59 182 0.0 1.0 0.00 0.00 0.00 92 1012.2
20210731151411 59 159 0.0 1.0 0.00 0.00 0.00 92 1012.2
20210731150911 59 158 0.0 1.0 0.00 0.00 0.00 92 1012.4
20210731150430 59 145 0.0 1.0 0.00 0.00 0.00 91 1012.4
20210731145911 59 142 0.0 1.0 0.00 0.00 0.00 91 1012.3
20210731145414 59 142 0.0 1.0 0.00 0.00 0.00 91 1012.5
20210731144911 59 107 0.0 1.0 0.00 0.00 0.00 91 1012.5
20210731144411 59 9 0.0 0.0 0.00 0.00 0.00 91 1012.5
20210731143912 58 10 0.0 0.0 0.00 0.00 0.00 91 1012.5
20210731143411 58 327 0.0 0.0 0.00 0.00 0.00 90 1012.9
20210731142911 58 327 0.0 0.0 0.00 0.00 0.00 90 1012.9
20210731142411 58 15 0.0 0.0 0.00 0.00 0.00 90 1012.9
20210731141911 58 15 0.0 0.0 0.00 0.00 0.00 90 1013.0
20210731141411 58 15 0.0 0.0 0.00 0.00 0.00 90 1013.1
20210731140911 58 15 0.0 0.0 0.00 0.00 0.00 90 1013.2
20210731140413 58 15 0.0 0.0 0.00 0.00 0.00 90 1013.2
20210731135911 58 15 0.0 0.0 0.00 0.00 0.00 89 1013.2
20210731135411 58 15 0.0 0.0 0.00 0.00 0.00 88 1013.4
20210731134913 58 15 0.0 0.0 0.00 0.00 0.00 88 1013.5
20210731134411 58 15 0.0 0.0 0.00 0.00 0.00 87 1013.7
20210731133912 58 15 0.0 0.0 0.00 0.00 0.00 87 1013.7
20210731133414 59 15 0.0 0.0 0.00 0.00 0.00 86 1013.7
20210731132911 59 15 0.0 0.0 0.00 0.00 0.00 86 1013.8
20210731132411 59 15 0.0 0.0 0.00 0.00 0.00 85 1014.0
20210731131914 59 15 0.0 0.0 0.00 0.00 0.00 84 1014.0
20210731131411 59 15 0.0 0.0 0.00 0.00 0.00 82 1014.1
20210731130912 59 15 0.0 0.0 0.00 0.00 0.00 81 1014.2
20210731130413 59 15 0.0 0.0 0.00 0.00 0.00 80 1014.2